Hourly Data Report for February 18, 2004

SHERBROOKE A
QUEBEC

45°26'00.000" N
71°41'00.000" W
241.40 m
7028124
71610
YSC

Download Data

Hourly Data (February 2004)
Hourly Data Report for February 18, 2004
TIME
LST
Temp Definition
°C
Dew Point Definition
°C
Rel Hum Definition
%
Precip. Amount Definition
mm

Wind Dir Definition
10's deg

Wind Spd Definition
km/h
Visibility Definition
km
Stn Press Definition
kPa
Hmdx Definition


Wind Chill Definition


Weather Definition


00:00 -14.5 -22.3 52   12 6 15.0 99.88   -19  
01:00 -14.9 -22.0 55     0 15.0 99.87      
02:00 -15.6 -22.6 55   10 4 15.0 99.84   -19  
03:00 -16.6 -23.1 57   12 4 15.0 99.79   -20  
04:00 -17.2 -23.2 60   11 6 15.0 99.73   -22  
05:00 -19.0 -24.9 60   9 4 15.0 99.72   -22  
06:00 -18.9 -24.4 62   10 6 15.0 99.70   -24  
07:00 -20.5 -25.2 66   10 6 15.0 99.70   -26  
08:00 -16.9 -23.4 57   10 6 24.1 99.66   -21 Clear
09:00 -11.3 -20.7 46     0 24.1 99.64     Clear
10:00 -8.1 -18.9 41     0 24.1 99.60     Clear
11:00 -6.0 -16.7 42   28 11 24.1 99.55   -11 Clear
12:00 -4.5 -15.5 42   30 7 24.1 99.46   -8 Clear
13:00 -2.9 -15.1 38   29 6 24.1 99.37   -5 Clear
14:00 -2.0 -12.9 43     0 24.1 99.26     Clear
15:00 -2.1 -13.1 43   28 15 24.1 99.15   -7 Mainly Clear
16:00 -3.0 -14.6 40   28 11 24.1 99.07   -7 Mainly Clear
17:00 -3.9 -15.2 41   30 9 24.1 98.94   -8 Clear
18:00 -5.6 -15.4 46     0 15.0 98.90      
19:00 -12.1 -17.8 62     0 15.0 98.82      
20:00 -14.2 -18.9 67     0 15.0 98.72      
21:00 -14.0 -17.9 72   10 4 15.0 98.60   -17  
22:00 -14.3 -17.6 76   9 4 15.0 98.48   -17  
23:00 -15.3 -19.1 73     0 15.0 98.48      

Notes on Data Quality.

Legend

  • E = Estimated
  • M = Missing
  • NA = Not Available*
  • [empty] = Indicates an unobserved value
Date modified: